sat.trackr.live / text

‹ back to catalog

GLOBAL-16

NORAD 49950 · 2021-120B

PAYLOAD ACTIVE UNKNOWN

§ Identity

Operator
Country
US
Launch date
2021-12-09
Launch site
RLLB
Launch vehicle
Mass (kg)
RCS (m²)

External: N2YO · Heavens-Above · Gunter

§ Orbital elements

Epoch: 2026-05-25T03:46:39.722016Z

Period
92.96 min
Inclination
41.9941°
Eccentricity
0.0009804
Mean motion
15.49015473 rev/d
Perigee alt
412.9 km
Apogee alt
426.3 km
Semi-major
6,797.7 km
B*
3.6347e-4
RAAN
189.7072°
Arg perigee
81.4952°
Mean anomaly
278.7002°
Rev number
25,127

§ Raw data

GLOBAL-161 49950U 21120B   26145.15740419  .00019966  00000+0  36347-3 0  99982 49950  41.9941 189.7072 0009804  81.4952 278.7002 15.49015473251273

JSON: /api/v1/satellites/49950 · /tle

For live sub-satellite position, see the globe view (requires WebGL).

§ Visibility from observer

Set your observer location to see the next 7 days of passes ≥ 10°. The values pass through the URL so the page stays shareable.

No JS? Fill the form by hand. The geolocation button needs JavaScript.

§ Radio — SatNOGS DB

ModeDescriptionDownlinkUplink
BPSK UHF Unknown 401.150 MHz

1 transmitter · refreshed weekly from db.satnogs.org